This demonstration page uses our WeatherBlox Daily Observations layout. Learn more.

Left ArrowRight Arrow

Hourly Observations for September 22, 2020

Temp ( °F °C ) Dew Point ( °F °C ) Humidity (%) Winds ( mph kmh ) Pressure ( in mb ) Visibility ( mi km ) Precip ( " mm )
12:53 am 00:53 Clear 66 18.9 54 12.2 65 65 ESE 10 17 30.02 1017 10 16 0.00 0.00
1:53 am 01:53 Clear 64 17.8 54 12.2 70 70 ESE 8 13 30.01 1016 10 16 0.00 0.00
2:53 am 02:53 Clear 61 16.1 53 11.7 75 75 E 6 9 30.01 1016 10 16 0.00 0.00
3:53 am 03:53 Clear 57 13.9 51 10.6 81 81 N 7 11 30.02 1017 10 16 0.00 0.00
4:53 am 04:53 Clear 55 12.8 50 10 83 83 N 7 11 30.02 1017 10 16 0.00 0.00
5:53 am 05:53 Clear 55 12.8 50 10 83 83 N 5 7 30.02 1017 10 16 0.00 0.00
6:53 am 06:53 Clear 53 11.7 50 10 89 89 N 6 9 30.03 1017 10 16 0.00 0.00
7:53 am 07:53 Sunny 53 11.7 50 10 89 89 N 6 9 30.06 1018 10 16 0.00 0.00
8:53 am 08:53 Sunny 59 15 53 11.7 81 81 N 5 7 30.06 1018 10 16 0.00 0.00
9:53 am 09:53 Sunny 66 18.9 56 13.3 70 70 ESE 6 9 30.06 1018 10 16 0.00 0.00
10:53 am 10:53 Sunny 70 21.1 57 13.9 64 64 Calm 30.06 1018 10 16 0.00 0.00
11:53 am 11:53 Sunny 76 24.4 57 13.9 52 52 VRB 5 7 30.04 1017 10 16 0.00 0.00
12:53 pm 12:53 Sunny 78 25.6 54 12.2 43 43 VRB 3 6 30.01 1016 10 16 0.00 0.00
1:53 pm 13:53 Sunny 81 27.2 51 10.6 35 35 Calm 29.98 1015 10 16 0.00 0.00
2:53 pm 14:53 Sunny 85 29.4 49 9.4 29 29 ENE 7 11 29.94 1014 10 16 0.00 0.00
3:53 pm 15:53 Sunny 85 29.4 45 7.2 25 25 VRB 3 6 29.92 1013 10 16 0.00 0.00
4:53 pm 16:53 Sunny 87 30.6 45 7.2 23 23 VRB 5 7 29.90 1013 10 16 0.00 0.00
5:53 pm 17:53 Sunny 87 30.6 46 7.8 24 24 SSE 8 13 29.88 1012 10 16 0.00 0.00
6:53 pm 18:53 Sunny 86 30 44 6.7 23 23 SSE 10 17 29.88 1012 10 16 0.00 0.00
7:53 pm 19:53 Clear 80 26.7 43 6.1 27 27 SSE 7 11 29.89 1012 10 16 0.00 0.00
8:53 pm 20:53 Clear 75 23.9 45 7.2 34 34 SSE 7 11 29.91 1013 10 16 0.00 0.00
9:53 pm 21:53 Clear 73 22.8 46 7.8 38 38 SE 8 13 29.91 1013 10 16 0.00 0.00
10:53 pm 22:53 Clear 73 22.8 45 7.2 37 37 ESE 8 13 29.91 1013 10 16 0.00 0.00
11:53 pm 23:53 Clear 70 21.1 45 7.2 41 41 ESE 8 13 29.92 1013 10 16 0.00 0.00

Powered by AerisWeather